Location: Calais Saint-Pierre
(50.9509°N, 1.8522°E)
Time: 04:49:36
(UTC+00:00)

CZ-4B R/B - Pass Details

Date: 15 May 2026
Orbit: 700 x 797 km, 98.9° (Epoch: 6 June)

Event Time Altitude Azimuth Distance (km) Brightness Sun altitude
Exits shadow 21:23:16 16° 169° (S) 1,777 4.9 -13.1°
Maximum altitude 21:27:01 78° 255° (WSW) 736 3.4 -13.4°
Drops below altitude 10° 21:31:55 10° 342° (NNW) 2,231 7.2 -13.8°
Sets 21:34:14 0° 344° (NNW) 3,172 8.2 -14.0°
